TimeEDT,TemperatureF,Dew PointF,Humidity,Sea Level PressureIn,VisibilityMPH,Wind Direction,Wind SpeedMPH,Gust SpeedMPH,PrecipitationIn,Events,Conditions,WindDirDegrees,DateUTC
12:53 AM,66.9,55.9,68,30.00,10.0,SSE,5.8,-,N/A,,Overcast,160,2013-08-06 04:53:00
1:53 AM,66.9,55.9,68,30.00,10.0,Calm,Calm,-,N/A,,Overcast,0,2013-08-06 05:53:00
3:53 AM,63.0,57.0,81,29.99,10.0,East,4.6,-,N/A,,Overcast,100,2013-08-06 07:53:00
4:53 AM,66.0,57.0,73,29.98,10.0,SE,3.5,-,N/A,,Overcast,140,2013-08-06 08:53:00
5:53 AM,66.0,57.0,73,29.97,10.0,SSE,3.5,-,N/A,,Overcast,150,2013-08-06 09:53:00
6:53 AM,66.0,55.9,70,29.99,10.0,SSE,4.6,-,N/A,,Overcast,150,2013-08-06 10:53:00
7:53 AM,66.0,57.0,73,30.01,10.0,SSE,4.6,-,N/A,,Overcast,160,2013-08-06 11:53:00
8:53 AM,68.0,57.0,68,30.01,10.0,Calm,Calm,-,N/A,,Partly Cloudy,0,2013-08-06 12:53:00
9:53 AM,72.0,55.9,57,30.00,10.0,SE,6.9,-,N/A,,Clear,140,2013-08-06 13:53:00
10:53 AM,75.0,55.0,50,29.99,10.0,SSE,9.2,-,N/A,,Partly Cloudy,150,2013-08-06 14:53:00
11:53 AM,77.0,55.9,48,29.98,10.0,SSE,10.4,25.3,N/A,,Clear,160,2013-08-06 15:53:00
12:53 PM,78.1,57.0,48,29.98,10.0,SSW,11.5,-,N/A,,Clear,200,2013-08-06 16:53:00
1:53 PM,79.0,57.9,48,29.98,10.0,South,9.2,-,N/A,,Clear,190,2013-08-06 17:53:00
2:53 PM,80.1,57.9,47,29.96,10.0,ESE,5.8,-,N/A,,Mostly Cloudy,120,2013-08-06 18:53:00
3:53 PM,79.0,57.0,47,29.96,10.0,South,9.2,-,N/A,,Overcast,180,2013-08-06 19:53:00
4:53 PM,81.0,61.0,50,29.95,10.0,SSE,8.1,-,N/A,,Partly Cloudy,150,2013-08-06 20:53:00
5:53 PM,79.0,59.0,50,29.95,10.0,SE,10.4,-,N/A,,Clear,140,2013-08-06 21:53:00
6:53 PM,79.0,60.1,52,29.94,10.0,South,11.5,-,N/A,,Mostly Cloudy,190,2013-08-06 22:53:00
7:53 PM,79.0,60.1,52,29.95,10.0,South,8.1,-,N/A,,Scattered Clouds,170,2013-08-06 23:53:00
8:53 PM,75.9,61.0,60,29.94,10.0,South,5.8,-,N/A,,Clear,180,2013-08-07 00:53:00
9:53 PM,75.0,62.1,64,29.95,10.0,South,3.5,-,N/A,,Mostly Cloudy,180,2013-08-07 01:53:00
10:53 PM,73.9,62.1,66,29.95,10.0,South,5.8,-,N/A,,Mostly Cloudy,170,2013-08-07 02:53:00
11:53 PM,73.0,62.1,68,29.94,10.0,SSE,5.8,-,N/A,,Clear,160,2013-08-07 03:53:00